Provincetown, Massachusetts, United States (02657)
Lat: 42.06N, Lon: 70.18W
Wx Zone: MAZ022
Local Info
Past Weather Observations for Today

NOTE: This archive is for the closest National Weather Service station to Provincetown. Information may differ from the station used for current weather conditions.

Click here for Long-term Archive

Time Weather Temperature Dewpoint Humidity Pressure Winds Precip Visibility
18:56
Overcast
73°F / 23°C 72°F / 22°C 94% 30.01 in
(1016 mb)
SSE 11.5 mph
(SSE 19 kph)
- 10SM
17:56
Overcast
75°F / 24°C 72°F / 22°C 89% 30.01 in
(1016 mb)
S 11.5 mph
(S 19 kph)
- 10SM
17:14
Overcast
75°F / 24°C 72°F / 22°C 89% 30.01 in
(1016 mb)
SSE 12.7 mph
(SSE 20 kph)
- 10SM
16:56
Overcast
75°F / 24°C 72°F / 22°C 89% 30.01 in
(1016 mb)
S 12.7 mph
(S 20 kph)
- 10SM
16:41
Mostly Cloudy
77°F / 25°C 72°F / 22°C 83% 30.01 in
(1016 mb)
S 12.7 mph
(S 20 kph)
- 10SM
15:56
Partly Cloudy
77°F / 25°C 72°F / 22°C 83% 30.04 in
(1017 mb)
S 15 mph
(S 24 kph)
- 10SM
15:16
Partly Cloudy
75°F / 24°C 72°F / 22°C 89% 30.04 in
(1017 mb)
SSE 10.4 mph
(SSE 17 kph)
- 10SM
14:56
Overcast
Fog And Mist
75°F / 24°C 72°F / 22°C 89% 30.04 in
(1017 mb)
S 11.5 mph
(S 19 kph)
- 5SM
13:56
Overcast
Fog And Mist
73°F / 23°C 72°F / 22°C 94% 30.06 in
(1018 mb)
S 11.5 mph
(S 19 kph)
- 2SM
13:48
Overcast
Fog And Mist
73°F / 23°C 72°F / 22°C 94% 30.06 in
(1018 mb)
S 12.7 mph
(S 20 kph)
- 2SM
12:56
Overcast
Fog And Mist
75°F / 24°C 72°F / 22°C 89% 30.06 in
(1018 mb)
SSE 12.7 mph
(SSE 20 kph)
- 6SM
11:56
Overcast
75°F / 24°C 72°F / 22°C 89% 30.09 in
(1019 mb)
SSE 13.8 mph
(SSE 22 kph)
- 10SM
10:56
Mostly Cloudy
79°F / 26°C 72°F / 22°C 79% 30.09 in
(1019 mb)
S 11.5 mph
(S 19 kph)
- 10SM
09:56
Overcast
77°F / 25°C 72°F / 22°C 83% 30.12 in
(1020 mb)
S 11.5 mph
(S 19 kph)
- 10SM
09:54
Overcast
77°F / 25°C 72°F / 22°C 83% 30.12 in
(1020 mb)
S 10.4 mph
(S 17 kph)
- 10SM
09:23
Partly Cloudy
75°F / 24°C 70°F / 21°C 83% 30.12 in
(1020 mb)
S 11.5 mph
(S 19 kph)
- 10SM
08:56
Mostly Cloudy
75°F / 24°C 68°F / 20°C 78% 30.12 in
(1020 mb)
Variable 6.9 mph
(Variable 11 kph)
- 10SM
07:56
Clear
73°F / 23°C 66°F / 19°C 78% 30.12 in
(1020 mb)
S 9.2 mph
(S 15 kph)
- 10SM
07:16
Partly Cloudy
73°F / 23°C 66°F / 19°C 78% 30.12 in
(1020 mb)
SSE 6.9 mph
(SSE 11 kph)
- 10SM
06:56
Mostly Cloudy
73°F / 23°C 66°F / 19°C 78% 30.12 in
(1020 mb)
Variable 5.8 mph
(Variable 9 kph)
- 10SM
05:56
Overcast
70°F / 21°C 64°F / 18°C 83% 30.12 in
(1020 mb)
SE 6.9 mph
(SE 11 kph)
- 10SM
04:56
Overcast
70°F / 21°C 66°F / 19°C 88% 30.12 in
(1020 mb)
S 4.6 mph
(S 7 kph)
- 10SM
03:56
Mostly Cloudy
64°F / 18°C 63°F / 17°C 94% 30.12 in
(1020 mb)
Calm - 10SM
02:56
Clear
64°F / 18°C 63°F / 17°C 94% 30.12 in
(1020 mb)
Calm - 8SM
01:56
Clear
64°F / 18°C 63°F / 17°C 94% 30.12 in
(1020 mb)
Calm - 9SM
00:56
Clear
68°F / 20°C 64°F / 18°C 88% 30.12 in
(1020 mb)
Calm - 10SM
Time Weather Temperature Dewpoint Humidity Pressure Winds Precip Visibility


Weather for websites

WeatherForYou.com, LLC is not responsible for any damages or problems caused by this service. Current weather conditions are obtained from the closest station including government and personal stations which may have varying degrees of accuracy. Weather forecasts are derived from the NOAA NDFD. Like all things, this site belongs to Jesus Christ... He just trusts us to maintain it. If you have any questions or comments email webmaster@weatherforyou.com

Copyright © 2015, WeatherForYou.com LLC. All rights reserved.